Other Public Products
Issued by NWS Grand Forks, ND

Home | Current Version | Previous Version | Graphics & Text | Print | Product List | Glossary Off
Versions: 1 2 3 4 5 6 7 8 9 10 11 12 13 14 15 16 17 18 19 20 21 22 23 24 25 26 27 28 29 30 31 32 33 34 35 36 37 38 39 40 41 42 43 44 45 46 47 48 49 50

000
FPUS83 KFGF 232231
OPUFGF
PRAIRIE TO PINES WEATHER ROUNDUP
NATIONAL WEATHER SERVICE EASTERN NORTH DAKOTA/GRAND FORKS ND
400 PM CST TUE JAN 23 2018

 **SATELLITE DATA USED TO AUGMENT SKY COVER AT AUTOMATED STATIONS**
 *****  WEATHER ACROSS EASTERN NORTH DAKOTA  *****

CITY           SKY/WX    TMP DP  RH WIND       PRES   REMARKS
GRAND FORKS    CLOUDY    23  21  92 S5        30.10R WCI  17
GRND FORKS AFB MIX PCPN  23  19  86 S3        30.10R
GRND FORKS NWS NOT AVBL
BUXTON           N/A     23  22  99 S3          N/A
DEVILS LAKE    CLOUDY    19  18  93 NW16      30.09R WCI   5
FARGO          CLOUDY    23  20  88 SW7       30.12R WCI  15
WAHPETON ARPT  CLOUDY    23  19  86 SW6       30.13R WCI  16
$$

 *****  WEATHER ACROSS CENTRAL AND WESTERN NORTH DAKOTA  *****

CITY           SKY/WX    TMP DP  RH WIND       PRES   REMARKS
JAMESTOWN      CLOUDY    24  21  88 NW16      30.08R WCI  11
BISMARCK       FAIR      34  24  67 NW12      30.11R
MINOT          CLOUDY    22  18  85 W7        30.10R WCI  13
MINOT AFB      CLOUDY    21  19  91 W8        30.09R WCI  11
GARRISON         N/A     23  18  81 N6        30.10R WCI  16
WILLISTON      FAIR      29  20  69 W10       30.11R WCI  20
DICKINSON      FAIR      34  23  64 W13       30.07R WCI  25
HETTINGER      FAIR      36  22  56 W16       30.11R
$$

 *****  OTHER OBSERVATIONS NORTHEAST NORTH DAKOTA  *****

CITY           SKY/WX    TMP DP  RH WIND       PRES   REMARKS
WALHALLA       FAIR      23  23 100 NW10      30.08R WCI  12
LANGDON        CLOUDY    21  21 100 NW12      30.04S WCI   9
CAVALIER         N/A     23  23 100 NW10      30.08R WCI  12
GRAFTON        CLOUDY    23  21  93 SW5       30.11S WCI  17
CANDO          CLOUDY    23  23 100 NW15      30.10R WCI  10
FORT TOTTEN      N/A     19  16  89 NW7       29.95S WCI  10
ROLLA          CLOUDY    21  21 100 NW18      30.06R WCI   6
RUGBY          CLOUDY    21  21 100 NW15      30.09R WCI   8
 ***** THE ABOVE OBSERVATIONS ARE NON NWS ARE NOT QUALITY
        CONTROLLED AND MAY MIS-REPORT RAIN FOR SNOW...
$$

 *****  OTHER OBSERVATIONS SOUTHEAST NORTH DAKOTA *****

CITY           SKY/WX    TMP DP  RH WIND       PRES   REMARKS
COOPERSTOWN    CLOUDY    23  21  93 NW15      30.08R FOG     WCI  10
VALLEY CITY    MIX PCPN  27  27 100 NW16      30.09R WCI  14
OAKES            N/A     28  23  80 W7        30.10R WCI  21
GWINNER          N/A     27  21  80 W5        30.10R WCI  21
SHEYENNE NWR     N/A     24  22  91 W5        29.95S WCI  18
BUFFALO          N/A     25  22  87 E5          N/A  WCI  19
WYNDMERE       NOT AVBL
 ***** THE ABOVE OBSERVATIONS ARE NON NWS ARE NOT QUALITY
       CONTROLLED AND MAY MIS-REPORT RAIN FOR SNOW...
$$

  *****  WEATHER ACROSS NORTHERN MINNESOTA  *****

CITY           SKY/WX    TMP DP  RH WIND       PRES   REMARKS
FLAG ISLAND    MOCLDY    12   1  62 CALM      30.09S
WARROAD        CLOUDY    12   9  85 CALM      30.11R
ROSEAU         FLURRIES  19  16  86 SW6       30.10R WCI  11
HALLOCK        CLOUDY    21  19  93 S12       30.09S FOG     WCI   9
THF RVR FALLS  FLURRIES  18  16  93 S7        30.10R WCI   8
HALSTAD        NOT AVBL
FOSSTON        CLOUDY    18  14  86 SW7       30.10R WCI   8
BAUDETTE       FAIR      19   2  47 CALM      30.08R
WASKISH        FAIR      16   7  67 CALM      30.09R
CROOKSTON      MOCLDY    21  18  86 S8        30.12R WCI  12
$$
  *****  WEATHER ACROSS CENTRAL AND WEST MINNESOTA  *****

CITY           SKY/WX    TMP DP  RH WIND       PRES   REMARKS
BEMIDJI        FAIR      21  10  63 E3        30.06R
PARK RAPIDS    FAIR      24  13  62 SE3       30.05S
WADENA         FAIR      21  16  79 SW5       30.08S WCI  15
DETROIT LAKES  CLOUDY    21  18  86 SW6       30.10R WCI  14
MOORHEAD       CLOUDY    21  18  86 W6        30.13R WCI  14
FERGUS FALLS   CLOUDY    21  18  86 W5        30.11S WCI  15
ELBOW LAKE     CLOUDY    22  17  82 SW3       30.11S
MORRIS MN      CLOUDY    25  18  74 W3        30.11R
STAPLES        FAIR      21  12  68 W3        30.08S
WHEATON        CLOUDY    25  18  74 CALM      30.14R
$$
  *****  WEATHER ELSEWHERE ACROSS MINNESOTA  *****

CITY           SKY/WX    TMP DP  RH WIND       PRES   REMARKS
DULUTH         FAIR      23   6  48 NW6       30.04R WCI  16
INTRNTL FALLS  FAIR      14  -1  51 NE3       30.09S
ELY            FAIR      18  -6  35 CALM      30.06R
CLOQUET        FAIR      21   5  49 NW5       30.07R WCI  15
BRAINERD       FAIR      25   8  48 NW3       30.08R
HIBBING        FAIR      18   5  57 N5        30.06R WCI  11
ALEXANDRIA     FAIR      26  17  68 NW6       30.09R WCI  19
SAINT CLOUD    FAIR      27  13  55 NW9       30.09R WCI  18
MINNEAPOLIS    FAIR      27  16  63 NW8       30.10R WCI  19
$$

  *****  WEATHER ACROSS SOUTH DAKOTA  *****

CITY           SKY/WX    TMP DP  RH WIND       PRES   REMARKS
SIOUX FALLS    CLOUDY    24  22  91 W7        30.12R WCI  16
BROOKINGS      CLOUDY    22  20  92 W10       30.10R WCI  11
WATERTOWN      CLOUDY    23  22  96 W9        30.07R FOG     WCI  13
HURON          FAIR      27  23  85 S3        30.12R
SISSETON         N/A     25  20  81 NW7       30.10R WCI  17
ABERDEEN       FAIR      35  23  61 W5        30.10R
MITCHELL       FAIR      31  25  78 W6        30.13R
PIERRE         FAIR      43  25  49 N16       30.11R
MOBRIDGE       FAIR      40  25  55 NW10      30.08R
RAPID CITY     FAIR      42  17  36 N20       30.14R
$$

  *****  SOME WEATHER IN NEARBY STATES *****

CITY           SKY/WX    TMP DP  RH WIND       PRES   REMARKS
GLASGOW MT     FAIR      24  16  71 NW3       30.10S
GREAT FALLS MT FAIR      38  15  39 SW21G29   30.05F
CHEYENNE WY    FAIR      29  15  56 NW14G25   30.18S WCI  18
SCOTTSBLUFF NE FAIR      34  21  59 NW15      30.23R WCI  24
OMAHA NE       CLOUDY    26  21  81 W9        30.20R WCI  17
DES MOINES IA  CLOUDY    27  21  78 NW13      30.15S WCI  16
DAVENPORT IA   CLOUDY    28  21  75 W17       30.11R WCI  16
CHICAGO IL     CLOUDY    30  24  78 NW10      29.98R WCI  21
EAU CLAIRE WI  CLOUDY    19  13  77 NW9       30.08R WCI   8
LA CROSSE WI   CLOUDY    25  18  74 NW9       30.09R WCI  15
$$

  *****  SOME NATIONAL WEATHER *****

CITY           SKY/WX    TMP DP  RH WIND       PRES   REMARKS
LA GUARDIA NY  HVY RAIN  56  49  77 W14G20    29.56R
RALEIGH NC     FAIR      64  29  26 SW12      29.76R
ATLANTA GA     PTSUNNY   53  32  44 W12G18    30.01R
NEW ORLEANS LA PTSUNNY   64  27  24 NW12      30.16R
OKLAHOMA CITY  FAIR      52  13  21 N8        30.26R
ALBUQUERQUE NM FAIR      46  11  24 N7        30.24F
SALT LAKE CITY FAIR      43  24  47 CALM      30.33S
LOS ANGELES CA FAIR      74  26  16 W13       30.10F
BOISE ID       CLOUDY    43  28  55 E13       30.22F
SEATTLE WA     LGT RAIN  43  39  86 E6        29.86F FOG
$$

*** WEATHER ACROSS MANITOBA...SASKATCHEWAN AND ONTARIO ***
                ***ONTARIO***

CITY           SKY/WX    TMP DP  RH WIND       PRES   REMARKS
GERALDTON      CLEAR      3  -8  60 N8        30.08R WCI -10
THUNDER BAY    PTCLDY    12  -8  40 N5        30.13R WCI   4
SIOUX LOOKOUT  MOCLDY     5  -8  56 VRB5      30.13R WCI  -4
TORONTO        LGT RAIN  37  32  81 SW15G22   29.52R
BIG TROUT LK   CLEAR     -6 -11  77 E5        30.30R WCI -17
PICKLE LAKE    PTCLDY     1 -11  55 E6        30.17R WCI -10
DRYDEN         PTCLDY     9  -6  52 NE6       30.10R WCI  -1
KENORA         MOCLDY    14  -2  48 E5        30.08  WCI   6
$$
                *** MANITOBA***

CITY           SKY/WX    TMP DP  RH WIND       PRES   REMARKS
BRANDON        CLOUDY    23  18  80 W9        30.06R WCI  13
DAUPHIN        CLOUDY    25  19  80 W15       30.02R WCI  12
ISLAND LAKE    LGT SNOW   5  -2  72 E13       30.15S WCI -12
PILOT MOUND      N/A     21  19  93 NW13G20     N/A  WCI   9
THE PAS        LGT SNOW   1  -6  71 NE5       30.07R WCI  -8
THOMPSON       MOCLDY   -11 -17  77 NE9       30.19S WCI -29
WINNIPEG       FRZ DRZL  19  18  93 S13       30.07S VSB     WCI   7
CHURCHILL      PTCLDY   -15 -20  76 SW2       30.45S
GILLAM         PTCLDY   -13 -18  77 E7        30.31S WCI -29
$$
                ***SASKATCHEWAN***

CITY           SKY/WX    TMP DP  RH WIND       PRES   REMARKS
ESTEVAN        CLOUDY    21  19  93 W7        30.08R FOG     WCI  13
KINDERSLEY     SUNNY     32  19  59 W6        29.99R
LLOYDMINSTER   MOSUNNY   23  21  93 NW3       29.97S
PRINCE ALBERT  FLURRIES  16  10  79 NW6       30.05S WCI   7
REGINA         MOSUNNY   21  19  93 S5        30.04S FOG     WCI  15
YORKTON        CLOUDY    25  21  86 W14       30.00R WCI  13
N. BATTLEFORD  FOG       18  16  93 NW3       30.03S VS



USA.gov is the U.S. government's official web portal to all federal, state and local government web resources and services.